Weather in Podkamen

Ukraine / Lviv District     49°56′40″N   25°19′22″E
temp.,
°C
wind,
m/s
gust,
m/s
humid.,
%
clouds,
%
prec.,
mm/h
press.,
hPa
HPBL,
m
16 september, thu
thu1600:00+13se347526 0.0 101857
03:00+12se48779 0.0 1018136
06:00+12sse498075 0.0 1017139
09:00+16sse596721 0.0 1016246
12:00+22sse565385 0.0 1016591
15:00+24s564897 0.0 10141169
18:00+22s4858100 0.0 1013277
21:00+19sse4966100 0.1 1014210
17 september, fri
fri1700:00+18sse41066100 0.0 1013212
03:00+15ene1197100 4.3 101233
06:00+16sse3793100 1.8 1010192
09:00+17sw368599 2.3 1009258
12:00+20w3373100 0.0 1008697
15:00+22wnw2366100 0.1 10071051
18:00+17sw2495100 6.8 1006157
21:00+16s1196100 8.4 100550
18 september, sat
sat1800:00+15nw71498100 7.8 1005720
03:00+13wnw81495100 11.1 1006736
06:00+13w81396100 0.2 1007725
09:00+12w71293100 0.4 1008875
12:00+12w71390100 0.1 1008824
15:00+13w71287100 0.2 1009849
18:00+13w71185100 0.1 1009911
21:00+11w4993100 0.3 1010814
19 september, sun
sun1900:00+11w2495100 0.8 1010327
03:00+10nw3594100 1.3 1010396
06:00+8wnw4993100 1.6 1011563
09:00+7w4792100 2.2 1012740
12:00+7w4687100 0.6 1013894
15:00+7w5791100 0.8 1013736
18:00+7w5993100 0.1 1013619
21:00+7wnw5894100 0.3 1014711
20 september, mon
mon2000:00+6w5896100 0.3 1014580
03:00+6wnw5898100 0.9 1013532
06:00+6wnw5898100 0.3 1013505
09:00+6wnw5796100 0.7 1014692
12:00+6wnw5794100 0.3 1015726
15:00+5wnw5894100 0.6 1016887
18:00+5nw5794100 0.3 1016953
21:00+4nw5797100 0.6 1018710